Dewpoint
61 60 59 59 59 59 59 58 58 60 60 60 60 60 60 59 59 59 58 57 57 55
61 60 59 59 59 59 59 59 60 60 60 60 60 60 59 59 59 59 58 57 57 57
58 58 58 58 58 57 57 57 57 59 59 59 59 59 59 59 59 58 58 57 57 57
57 58 58 57 56 56 56 56 56 56 57 58 58 59 58 58 58 58 57 57 57 56
57 58 57 57 56 56 56 56 56 56 56 57 58 58 58 58 58 57 57 57 57 56
56 57 57 57 56 56 56 56 56 56 55 55 57 58 58 58 57 57 57 57 56 56
56 56 57 56 56 56 56 55 55 55 54 54 54 56 57 56 57 56 56 56 56 56
55 56 56 56 56 56 55 55 55 54 54 54 53 52 54 54 55 54 54 54 55 54
55 56 56 57 57 56 55 55 55 54 54 48 43 43 50 54 53 53 53 53 53 54
47 47 47 47 46 45 43 42 42 41 41 39 39 39 44 51 53 52 52 52 52 52
39 39 39 39 38 37 36 36 35 35 36 36 36 40 42 43 40 37 35 36 38 41
33 33 33 32 33 33 32 31 31 32 32 33 33 36 36 36 34 32 32 32 34 35
32 32 31 31 30 30 30 29 29 29 30 32 32 34 34 33 32 30 30 30 31 33
30 31 32 32 31 30 29 28 28 28 28 29 31 32 32 31 30 29 28 29 29 31
Wind_Speed
22 21 19 20 18 17 18 17 18 18 17 21 22 23 25 24 24 26 25 28 22 14
19 17 16 16 16 16 14 14 14 18 20 19 21 23 25 25 25 25 27 27 23 15
17 16 16 17 16 13 10 9 11 14 18 19 21 21 23 19 22 23 24 25 24 21
16 17 15 13 10 7 7 9 12 13 13 16 21 23 22 17 22 24 26 25 26 24
16 15 12 10 10 9 10 10 10 11 12 13 15 19 21 22 22 25 22 25 22 21
14 13 13 12 10 9 9 10 9 10 8 6 11 20 19 23 21 24 21 20 23 21
11 10 13 11 12 11 11 11 10 9 7 8 8 9 14 18 22 19 21 18 18 20
12 10 10 12 13 12 12 11 10 9 6 6 8 7 13 13 20 21 18 15 14 11
7 6 6 10 12 12 9 7 11 8 9 7 6 5 4 10 10 14 14 13 10 7
14 14 12 16 17 16 14 15 17 15 13 10 7 7 1 10 9 8 6 7 10 10
17 17 15 18 18 17 16 18 16 17 14 13 15 10 15 21 18 18 15 12 9 9
20 18 21 21 20 16 16 19 18 17 17 18 18 17 18 23 21 21 20 18 13 8
22 20 24 22 22 19 20 19 19 21 20 20 20 20 17 18 18 22 18 18 19 22
25 21 20 23 22 22 21 22 22 23 23 24 22 22 23 20 18 18 20 19 19 19
Wind_Direction
175 178 188 183 181 182 191 199 204 205 200 206 201 200 197 192 190 187 187 187 194 194
169 170 172 168 165 173 176 179 185 202 203 205 203 200 195 191 189 187 190 189 191 191
142 146 138 139 149 160 168 176 199 211 210 208 205 195 194 184 181 186 187 188 191 197
122 122 132 141 135 140 173 196 213 221 227 217 212 200 185 180 184 185 183 181 185 195
120 122 129 134 149 164 189 199 206 210 210 220 200 181 185 171 177 183 183 177 170 190
137 142 138 152 145 180 186 186 180 185 176 171 194 186 190 188 179 177 175 169 176 183
148 153 152 158 158 182 177 170 173 170 167 146 117 157 158 153 161 155 157 158 165 173
164 169 165 163 166 178 181 171 173 165 154 124 103 74 118 139 149 151 147 156 165 183
114 191 182 168 166 182 185 173 176 176 156 108 76 21 135 146 141 140 153 171 183 200
68 76 75 81 78 71 72 75 74 68 76 72 35 4 197 183 168 164 177 197 210 198
50 54 52 65 72 66 66 69 68 61 56 54 29 71 103 107 95 87 71 67 70 120
25 60 60 57 55 57 65 65 62 58 55 51 39 54 84 97 94 85 73 60 58 78
34 44 66 66 63 59 62 62 62 58 50 52 55 53 68 89 100 93 83 69 58 65
33 32 55 73 72 69 68 67 61 60 53 50 49 58 71 76 82 91 89 79 73 72